| time (UTC) | temp F | wind direction | speed MPH | gust MPH | rain 1hr in | rain 24hr in | rain mn in | humidity % | barometer mb |
| 20260505230637 | 55 | 319 | 4.0 | 9.0 | 0.00 | 0.00 | 0.00 | 37 | 1007.8 |
| 20260505230133 | 55 | 266 | 2.0 | 8.0 | 0.00 | 0.00 | 0.00 | 37 | 1008.0 |
| 20260505225629 | 55 | 167 | 2.0 | 4.0 | 0.00 | 0.00 | 0.00 | 38 | 1008.1 |
| 20260505225126 | 55 | 302 | 5.0 | 9.0 | 0.00 | 0.00 | 0.00 | 36 | 1007.9 |
| 20260505224622 | 55 | 256 | 3.0 | 7.0 | 0.00 | 0.00 | 0.00 | 37 | 1008.1 |
| 20260505224120 | 55 | 261 | 3.0 | 6.0 | 0.00 | 0.00 | 0.00 | 36 | 1007.9 |
| 20260505223617 | 55 | 115 | 6.0 | 8.0 | 0.00 | 0.00 | 0.00 | 35 | 1008.2 |
| 20260505223113 | 55 | 229 | 3.0 | 6.0 | 0.00 | 0.00 | 0.00 | 36 | 1008.2 |
| 20260505222609 | 55 | 195 | 4.0 | 7.0 | 0.00 | 0.00 | 0.00 | 36 | 1008.1 |
| 20260505222105 | 55 | 292 | 3.0 | 4.0 | 0.00 | 0.00 | 0.00 | 36 | 1008.2 |
| 20260505221602 | 55 | 141 | 4.0 | 11.0 | 0.00 | 0.00 | 0.00 | 36 | 1008.1 |
| 20260505221058 | 55 | 235 | 6.0 | 11.0 | 0.00 | 0.00 | 0.00 | 35 | 1008.0 |
| 20260505220556 | 55 | 242 | 4.0 | 9.0 | 0.00 | 0.00 | 0.00 | 35 | 1008.1 |
| 20260505220054 | 55 | 234 | 3.0 | 8.0 | 0.00 | 0.00 | 0.00 | 35 | 1008.1 |
| 20260505215552 | 55 | 21 | 3.0 | 7.0 | 0.00 | 0.00 | 0.00 | 34 | 1008.2 |
| 20260505215049 | 55 | 202 | 6.0 | 11.0 | 0.00 | 0.00 | 0.00 | 35 | 1008.1 |
| 20260505214547 | 55 | 340 | 2.0 | 3.0 | 0.00 | 0.00 | 0.00 | 36 | 1008.2 |
| 20260505214044 | 55 | 309 | 3.0 | 9.0 | 0.00 | 0.00 | 0.00 | 35 | 1008.1 |
| 20260505213542 | 55 | 239 | 5.0 | 8.0 | 0.00 | 0.00 | 0.00 | 35 | 1008.3 |
| 20260505213037 | 55 | 263 | 5.0 | 9.0 | 0.00 | 0.00 | 0.00 | 34 | 1008.4 |
| 20260505212534 | 55 | 214 | 5.0 | 6.0 | 0.00 | 0.00 | 0.00 | 35 | 1008.2 |
| 20260505212031 | 55 | 182 | 3.0 | 4.0 | 0.00 | 0.00 | 0.00 | 34 | 1008.2 |
| 20260505211529 | 55 | 264 | 4.0 | 8.0 | 0.00 | 0.00 | 0.00 | 34 | 1008.2 |
| 20260505211025 | 55 | 286 | 5.0 | 9.0 | 0.00 | 0.00 | 0.00 | 34 | 1008.2 |
| 20260505210522 | 56 | 288 | 7.0 | 10.0 | 0.00 | 0.00 | 0.00 | 33 | 1008.1 |
| 20260505210019 | 56 | 224 | 3.0 | 7.0 | 0.00 | 0.00 | 0.00 | 34 | 1008.2 |
| 20260505205517 | 56 | 214 | 7.0 | 10.0 | 0.00 | 0.00 | 0.00 | 34 | 1008.2 |
| 20260505205014 | 56 | 334 | 4.0 | 7.0 | 0.00 | 0.00 | 0.00 | 34 | 1008.4 |
| 20260505204512 | 56 | 293 | 8.0 | 10.0 | 0.00 | 0.00 | 0.00 | 33 | 1008.4 |
| 20260505204009 | 56 | 200 | 5.0 | 8.0 | 0.00 | 0.00 | 0.00 | 34 | 1008.3 |
| 20260505203505 | 56 | 298 | 7.0 | 10.0 | 0.00 | 0.00 | 0.00 | 34 | 1008.3 |
| 20260505203001 | 56 | 297 | 7.0 | 9.0 | 0.00 | 0.00 | 0.00 | 33 | 1008.3 |
| 20260505202458 | 56 | 263 | 4.0 | 6.0 | 0.00 | 0.00 | 0.00 | 34 | 1008.5 |
| 20260505201954 | 55 | 197 | 4.0 | 9.0 | 0.00 | 0.00 | 0.00 | 34 | 1008.5 |
| 20260505201451 | 55 | 329 | 7.0 | 13.0 | 0.00 | 0.00 | 0.00 | 32 | 1008.3 |
| 20260505200949 | 56 | 298 | 5.0 | 11.0 | 0.00 | 0.00 | 0.00 | 33 | 1008.5 |
| 20260505200447 | 55 | 205 | 5.0 | 9.0 | 0.00 | 0.00 | 0.00 | 33 | 1008.7 |
| 20260505195942 | 55 | 6 | 5.0 | 10.0 | 0.00 | 0.00 | 0.00 | 32 | 1008.7 |
| 20260505195439 | 55 | 196 | 4.0 | 9.0 | 0.00 | 0.00 | 0.00 | 33 | 1008.7 |
| 20260505194937 | 55 | 297 | 5.0 | 10.0 | 0.00 | 0.00 | 0.00 | 32 | 1008.5 |
| 20260505194434 | 55 | 210 | 4.0 | 7.0 | 0.00 | 0.00 | 0.00 | 32 | 1008.7 |
| 20260505193934 | 55 | 104 | 2.0 | 9.0 | 0.00 | 0.00 | 0.00 | 32 | 1008.7 |
| 20260505193432 | 55 | 231 | 7.0 | 11.0 | 0.00 | 0.00 | 0.00 | 31 | 1008.7 |
| 20260505192929 | 55 | 204 | 4.0 | 8.0 | 0.00 | 0.00 | 0.00 | 31 | 1008.7 |
| 20260505192427 | 56 | 277 | 3.0 | 8.0 | 0.00 | 0.00 | 0.00 | 31 | 1008.8 |
| 20260505191925 | 55 | 343 | 8.0 | 11.0 | 0.00 | 0.00 | 0.00 | 31 | 1008.6 |
| 20260505191423 | 55 | 251 | 4.0 | 10.0 | 0.00 | 0.00 | 0.00 | 31 | 1008.7 |
| 20260505190920 | 55 | 347 | 4.0 | 11.0 | 0.00 | 0.00 | 0.00 | 32 | 1008.7 |
| 20260505190415 | 56 | 252 | 5.0 | 11.0 | 0.00 | 0.00 | 0.00 | 29 | 1008.8 |
| 20260505185910 | 56 | 180 | 2.0 | 7.0 | 0.00 | 0.00 | 0.00 | 29 | 1008.9 |
| 20260505185408 | 56 | 195 | 6.0 | 13.0 | 0.00 | 0.00 | 0.00 | 30 | 1008.6 |
| 20260505184904 | 56 | 351 | 6.0 | 13.0 | 0.00 | 0.00 | 0.00 | 29 | 1008.8 |
| 20260505184401 | 56 | 170 | 9.0 | 10.0 | 0.00 | 0.00 | 0.00 | 30 | 1008.9 |
| 20260505183858 | 56 | 156 | 3.0 | 10.0 | 0.00 | 0.00 | 0.00 | 30 | 1008.7 |
| 20260505183355 | 56 | 252 | 4.0 | 9.0 | 0.00 | 0.00 | 0.00 | 34 | 1008.7 |
| 20260505182851 | 56 | 254 | 5.0 | 10.0 | 0.00 | 0.00 | 0.00 | 31 | 1008.8 |
| 20260505182348 | 56 | 335 | 7.0 | 10.0 | 0.00 | 0.00 | 0.00 | 31 | 1008.5 |
| 20260505181845 | 57 | 260 | 6.0 | 13.0 | 0.00 | 0.00 | 0.00 | 30 | 1008.5 |
| 20260505181342 | 56 | 233 | 3.0 | 8.0 | 0.00 | 0.00 | 0.00 | 32 | 1008.6 |
| 20260505180839 | 55 | 190 | 1.0 | 6.0 | 0.00 | 0.00 | 0.00 | 33 | 1008.4 |
| 20260505180335 | 56 | 7 | 11.0 | 13.0 | 0.00 | 0.00 | 0.00 | 30 | 1008.8 |
| 20260505175832 | 56 | 190 | 3.0 | 7.0 | 0.00 | 0.00 | 0.00 | 32 | 1008.5 |
| 20260505175328 | 57 | 184 | 3.0 | 8.0 | 0.00 | 0.00 | 0.00 | 30 | 1008.6 |
| 20260505174825 | 58 | 336 | 4.0 | 9.0 | 0.00 | 0.00 | 0.00 | 29 | 1008.7 |
| 20260505174322 | 56 | 305 | 4.0 | 6.0 | 0.00 | 0.00 | 0.00 | 32 | 1008.6 |
| 20260505173818 | 56 | 273 | 7.0 | 10.0 | 0.00 | 0.00 | 0.00 | 32 | 1008.6 |
| 20260505173314 | 55 | 258 | 4.0 | 9.0 | 0.00 | 0.00 | 0.00 | 32 | 1008.5 |
| 20260505172812 | 56 | 334 | 6.0 | 8.0 | 0.00 | 0.00 | 0.00 | 31 | 1008.5 |
| 20260505172310 | 56 | 299 | 6.0 | 10.0 | 0.00 | 0.00 | 0.00 | 32 | 1008.4 |
| 20260505171804 | 55 | 285 | 3.0 | 6.0 | 0.00 | 0.00 | 0.00 | 33 | 1008.3 |
| 20260505171301 | 56 | 300 | 5.0 | 13.0 | 0.00 | 0.00 | 0.00 | 35 | 1008.2 |
| 20260505170757 | 56 | 334 | 2.0 | 4.0 | 0.00 | 0.00 | 0.00 | 35 | 1008.3 |
| 20260505170255 | 56 | 325 | 7.0 | 13.0 | 0.00 | 0.00 | 0.00 | 33 | 1008.4 |
| 20260505165750 | 55 | 139 | 3.0 | 10.0 | 0.00 | 0.00 | 0.00 | 34 | 1008.2 |
| 20260505165246 | 55 | 232 | 4.0 | 13.0 | 0.00 | 0.00 | 0.00 | 34 | 1008.2 |
| 20260505164742 | 55 | 302 | 7.0 | 10.0 | 0.00 | 0.00 | 0.00 | 35 | 1008.3 |
| 20260505164239 | 55 | 144 | 2.0 | 8.0 | 0.00 | 0.00 | 0.00 | 37 | 1008.5 |
| 20260505163737 | 54 | 185 | 3.0 | 8.0 | 0.00 | 0.00 | 0.00 | 37 | 1008.6 |
| 20260505163236 | 54 | 283 | 6.0 | 9.0 | 0.00 | 0.00 | 0.00 | 40 | 1008.5 |
| 20260505162732 | 54 | 268 | 3.0 | 9.0 | 0.00 | 0.00 | 0.00 | 38 | 1008.7 |
| 20260505162229 | 53 | 300 | 4.0 | 7.0 | 0.00 | 0.00 | 0.00 | 39 | 1008.6 |
| 20260505161726 | 53 | 301 | 5.0 | 9.0 | 0.00 | 0.00 | 0.00 | 39 | 1008.7 |
| 20260505161224 | 53 | 57 | 2.0 | 7.0 | 0.00 | 0.00 | 0.00 | 39 | 1008.6 |
| 20260505160721 | 53 | 202 | 2.0 | 7.0 | 0.00 | 0.00 | 0.00 | 41 | 1008.4 |
| 20260505160219 | 52 | 295 | 4.0 | 10.0 | 0.00 | 0.00 | 0.00 | 40 | 1008.3 |
| 20260505153158 | 53 | 222 | 4.0 | 8.0 | 0.00 | 0.00 | 0.00 | 41 | 1008.1 |
| 20260505152655 | 53 | 283 | 7.0 | 9.0 | 0.00 | 0.00 | 0.00 | 38 | 1007.9 |
| 20260505152150 | 52 | 125 | 3.0 | 7.0 | 0.00 | 0.00 | 0.00 | 40 | 1007.9 |
| 20260505151646 | 52 | 302 | 4.0 | 8.0 | 0.00 | 0.00 | 0.00 | 39 | 1008.0 |
| 20260505151144 | 52 | 314 | 6.0 | 10.0 | 0.00 | 0.00 | 0.00 | 39 | 1008.1 |
| 20260505150639 | 52 | 304 | 6.0 | 10.0 | 0.00 | 0.00 | 0.00 | 37 | 1007.9 |
| 20260505150137 | 52 | 231 | 4.0 | 10.0 | 0.00 | 0.00 | 0.00 | 37 | 1008.3 |
| 20260505140605 | 50 | 168 | 2.0 | 6.0 | 0.00 | 0.00 | 0.00 | 50 | 1008.2 |
| 20260505125019 | 48 | 176 | 1.0 | 4.0 | 0.00 | 0.00 | 0.00 | 59 | 1008.5 |
| 20260505124515 | 48 | 151 | 1.0 | 2.0 | 0.00 | 0.00 | 0.00 | 61 | 1008.3 |
| 20260505124012 | 48 | 149 | 0.0 | 0.0 | 0.00 | 0.00 | 0.00 | 64 | 1008.1 |
| 20260505123508 | 48 | 163 | 0.0 | 0.0 | 0.00 | 0.00 | 0.00 | 64 | 1008.2 |
| 20260505123004 | 47 | 180 | 1.0 | 2.0 | 0.00 | 0.00 | 0.00 | 63 | 1008.3 |
| 20260505122502 | 47 | 170 | 0.0 | 1.0 | 0.00 | 0.00 | 0.00 | 63 | 1008.2 |
| 20260505121958 | 47 | 162 | 0.0 | 1.0 | 0.00 | 0.00 | 0.00 | 66 | 1008.1 |
| 20260505121455 | 46 | 207 | 1.0 | 1.0 | 0.00 | 0.00 | 0.00 | 67 | 1008.5 |
| 20260505120951 | 46 | 297 | 2.0 | 3.0 | 0.00 | 0.00 | 0.00 | 66 | 1008.2 |
| 20260505120448 | 47 | 161 | 0.0 | 0.0 | 0.00 | 0.00 | 0.00 | 66 | 1008.1 |
| 20260505115947 | 46 | 189 | 1.0 | 3.0 | 0.00 | 0.00 | 0.00 | 63 | 1008.2 |
| 20260505115443 | 46 | 144 | 0.0 | 1.0 | 0.00 | 0.00 | 0.00 | 64 | 1007.7 |
| 20260505114941 | 46 | 153 | 0.0 | 1.0 | 0.00 | 0.00 | 0.00 | 64 | 1007.7 |
| 20260505114432 | 46 | 148 | 0.0 | 1.0 | 0.00 | 0.00 | 0.00 | 65 | 1008.1 |
| 20260505113928 | 46 | 144 | 0.0 | 2.0 | 0.00 | 0.00 | 0.00 | 65 | 1008.4 |
| 20260505113425 | 46 | 156 | 2.0 | 3.0 | 0.00 | 0.00 | 0.00 | 65 | 1008.1 |
| 20260505112921 | 46 | 215 | 1.0 | 3.0 | 0.00 | 0.00 | 0.00 | 65 | 1007.4 |
| 20260505112419 | 46 | 292 | 3.0 | 4.0 | 0.00 | 0.00 | 0.00 | 67 | 1007.5 |
| 20260505111914 | 46 | 180 | 1.0 | 1.0 | 0.00 | 0.00 | 0.00 | 68 | 1007.3 |
| 20260505111409 | 46 | 163 | 0.0 | 0.0 | 0.00 | 0.00 | 0.00 | 66 | 1006.6 |
| 20260505110906 | 46 | 154 | 0.0 | 1.0 | 0.00 | 0.00 | 0.00 | 67 | 1006.6 |
| 20260505110403 | 46 | 160 | 0.0 | 1.0 | 0.00 | 0.00 | 0.00 | 67 | 1007.0 |
| 20260505101833 | 48 | 231 | 2.0 | 4.0 | 0.00 | 0.00 | 0.00 | 55 | 1007.2 |
| 20260505101328 | 48 | 268 | 3.0 | 7.0 | 0.00 | 0.00 | 0.00 | 54 | 1007.1 |
| 20260505100824 | 48 | 169 | 1.0 | 3.0 | 0.00 | 0.00 | 0.00 | 56 | 1006.4 |
| 20260505100321 | 48 | 288 | 5.0 | 8.0 | 0.00 | 0.00 | 0.00 | 55 | 1006.4 |
| 20260505095817 | 48 | 315 | 2.0 | 3.0 | 0.00 | 0.00 | 0.00 | 56 | 1005.6 |
| 20260505095315 | 48 | 13 | 2.0 | 6.0 | 0.00 | 0.00 | 0.00 | 55 | 1005.4 |
| 20260505094810 | 49 | 158 | 0.0 | 4.0 | 0.00 | 0.00 | 0.00 | 55 | 1005.2 |
| 20260505094308 | 49 | 156 | 1.0 | 3.0 | 0.00 | 0.00 | 0.00 | 55 | 1005.3 |
| 20260505093803 | 49 | 47 | 2.0 | 3.0 | 0.00 | 0.00 | 0.00 | 54 | 1005.3 |
| 20260505093301 | 49 | 123 | 1.0 | 3.0 | 0.00 | 0.00 | 0.00 | 53 | 1005.3 |
| 20260505092757 | 49 | 151 | 2.0 | 3.0 | 0.00 | 0.00 | 0.00 | 53 | 1005.5 |
| 20260505092256 | 50 | 177 | 1.0 | 4.0 | 0.00 | 0.00 | 0.00 | 53 | 1005.4 |
| 20260505091753 | 50 | 157 | 2.0 | 4.0 | 0.00 | 0.00 | 0.00 | 52 | 1005.4 |
| 20260505091251 | 50 | 284 | 2.0 | 4.0 | 0.00 | 0.00 | 0.00 | 52 | 1005.4 |
| 20260505090749 | 50 | 214 | 5.0 | 8.0 | 0.00 | 0.00 | 0.00 | 53 | 1005.5 |
| 20260505090246 | 50 | 186 | 4.0 | 7.0 | 0.00 | 0.00 | 0.00 | 53 | 1005.2 |
| 20260505085744 | 50 | 312 | 1.0 | 7.0 | 0.00 | 0.00 | 0.00 | 54 | 1005.2 |
| 20260505085242 | 50 | 315 | 5.0 | 8.0 | 0.00 | 0.00 | 0.00 | 54 | 1005.1 |
| 20260505084738 | 49 | 327 | 6.0 | 8.0 | 0.00 | 0.00 | 0.00 | 57 | 1004.8 |
| 20260505084238 | 50 | 52 | 4.0 | 6.0 | 0.00 | 0.00 | 0.00 | 57 | 1004.5 |
| 20260505083734 | 50 | 265 | 3.0 | 6.0 | 0.00 | 0.00 | 0.00 | 56 | 1004.7 |
| 20260505083231 | 50 | 229 | 4.0 | 9.0 | 0.00 | 0.00 | 0.00 | 55 | 1004.6 |
| 20260505082727 | 50 | 52 | 2.0 | 3.0 | 0.00 | 0.00 | 0.00 | 56 | 1004.5 |
| 20260505082224 | 51 | 163 | 3.0 | 4.0 | 0.00 | 0.00 | 0.00 | 56 | 1004.5 |
| 20260505081720 | 51 | 42 | 2.0 | 7.0 | 0.00 | 0.00 | 0.00 | 54 | 1004.3 |
| 20260505081218 | 51 | 5 | 2.0 | 8.0 | 0.00 | 0.00 | 0.00 | 55 | 1004.0 |
| 20260505080715 | 51 | 305 | 6.0 | 7.0 | 0.00 | 0.00 | 0.00 | 55 | 1004.1 |
| 20260505080210 | 51 | 272 | 4.0 | 7.0 | 0.00 | 0.00 | 0.00 | 55 | 1003.8 |
| 20260505075706 | 51 | 290 | 4.0 | 6.0 | 0.00 | 0.00 | 0.00 | 55 | 1003.6 |
| 20260505075203 | 52 | 175 | 1.0 | 6.0 | 0.00 | 0.00 | 0.00 | 55 | 1003.3 |
| 20260505074700 | 52 | 317 | 3.0 | 4.0 | 0.00 | 0.00 | 0.00 | 54 | 1003.5 |
| 20260505074157 | 52 | 278 | 3.0 | 4.0 | 0.00 | 0.00 | 0.00 | 52 | 1003.6 |
| 20260505073655 | 52 | 207 | 3.0 | 4.0 | 0.00 | 0.00 | 0.00 | 51 | 1003.5 |
| 20260505073153 | 52 | 227 | 1.0 | 6.0 | 0.00 | 0.00 | 0.00 | 51 | 1003.5 |
| 20260505072648 | 52 | 301 | 3.0 | 4.0 | 0.00 | 0.00 | 0.00 | 51 | 1003.4 |
| 20260505072145 | 52 | 241 | 2.0 | 3.0 | 0.00 | 0.00 | 0.00 | 52 | 1003.3 |
| 20260505071640 | 52 | 239 | 2.0 | 4.0 | 0.00 | 0.00 | 0.00 | 52 | 1003.1 |
| 20260505071139 | 52 | 143 | 2.0 | 6.0 | 0.00 | 0.00 | 0.00 | 52 | 1003.0 |
| 20260505070635 | 52 | 130 | 2.0 | 3.0 | 0.00 | 0.00 | 0.00 | 53 | 1003.0 |
| 20260505070132 | 52 | 290 | 4.0 | 6.0 | 0.00 | 0.00 | 0.00 | 53 | 1002.6 |
| 20260505065628 | 52 | 13 | 1.0 | 7.0 | 0.00 | 0.00 | 0.00 | 53 | 1002.7 |
| 20260505065124 | 53 | 167 | 1.0 | 4.0 | 0.00 | 0.00 | 0.00 | 52 | 1002.5 |
| 20260505064621 | 53 | 175 | 2.0 | 6.0 | 0.00 | 0.00 | 0.00 | 51 | 1002.5 |
| 20260505064120 | 53 | 296 | 4.0 | 4.0 | 0.00 | 0.00 | 0.00 | 51 | 1002.3 |
| 20260505063617 | 53 | 313 | 2.0 | 3.0 | 0.00 | 0.00 | 0.00 | 50 | 1002.3 |
| 20260505063113 | 54 | 267 | 3.0 | 4.0 | 0.00 | 0.00 | 0.00 | 50 | 1002.3 |
| 20260505062609 | 54 | 284 | 4.0 | 7.0 | 0.00 | 0.00 | 0.00 | 49 | 1002.1 |
| 20260505062107 | 53 | 290 | 4.0 | 6.0 | 0.00 | 0.00 | 0.00 | 51 | 1002.3 |
| 20260505061604 | 53 | 262 | 4.0 | 6.0 | 0.00 | 0.00 | 0.00 | 53 | 1002.1 |
| 20260505061102 | 54 | 271 | 3.0 | 7.0 | 0.00 | 0.00 | 0.00 | 54 | 1002.2 |
| 20260505060559 | 54 | 48 | 2.0 | 7.0 | 0.00 | 0.00 | 0.00 | 53 | 1002.3 |
| 20260505060056 | 55 | 276 | 3.0 | 4.0 | 0.00 | 0.00 | 0.00 | 51 | 1002.3 |
| 20260505055551 | 55 | 121 | 2.0 | 4.0 | 0.00 | 0.00 | 0.00 | 49 | 1002.2 |
| 20260505055048 | 55 | 251 | 4.0 | 4.0 | 0.00 | 0.00 | 0.00 | 48 | 1002.0 |
| 20260505054545 | 55 | 301 | 3.0 | 4.0 | 0.00 | 0.00 | 0.00 | 48 | 1002.1 |
| 20260505054043 | 55 | 296 | 3.0 | 4.0 | 0.00 | 0.00 | 0.00 | 48 | 1002.0 |
| 20260505053540 | 55 | 164 | 1.0 | 3.0 | 0.00 | 0.00 | 0.00 | 49 | 1002.0 |
| 20260505053037 | 55 | 330 | 4.0 | 7.0 | 0.00 | 0.00 | 0.00 | 48 | 1002.0 |
| 20260505052534 | 55 | 284 | 3.0 | 4.0 | 0.00 | 0.00 | 0.00 | 48 | 1002.0 |
| 20260505052031 | 55 | 293 | 2.0 | 3.0 | 0.00 | 0.00 | 0.00 | 49 | 1001.8 |
| 20260505051528 | 55 | 322 | 2.0 | 4.0 | 0.00 | 0.00 | 0.00 | 49 | 1001.8 |
| 20260505051026 | 55 | 278 | 1.0 | 3.0 | 0.00 | 0.00 | 0.00 | 48 | 1001.9 |
| 20260505050524 | 55 | 242 | 2.0 | 3.0 | 0.00 | 0.00 | 0.00 | 49 | 1001.8 |
| 20260505041451 | 59 | 300 | 4.0 | 6.0 | 0.00 | 0.02 | 0.02 | 43 | 1001.4 |
| 20260505040949 | 60 | 221 | 4.0 | 7.0 | 0.00 | 0.02 | 0.02 | 42 | 1001.2 |
| 20260505040446 | 60 | 304 | 3.0 | 8.0 | 0.00 | 0.02 | 0.02 | 42 | 1001.1 |
| 20260505035943 | 60 | 154 | 5.0 | 7.0 | 0.00 | 0.02 | 0.02 | 43 | 1001.1 |
| 20260505035439 | 60 | 161 | 1.0 | 4.0 | 0.00 | 0.02 | 0.02 | 43 | 1001.2 |
| 20260505034936 | 60 | 291 | 1.0 | 7.0 | 0.00 | 0.02 | 0.02 | 44 | 1001.3 |
| 20260505034432 | 60 | 154 | 1.0 | 6.0 | 0.00 | 0.02 | 0.02 | 45 | 1001.1 |
| 20260505033930 | 61 | 177 | 2.0 | 4.0 | 0.00 | 0.02 | 0.02 | 44 | 1001.1 |
| 20260505033426 | 61 | 195 | 2.0 | 4.0 | 0.00 | 0.02 | 0.02 | 44 | 1000.9 |
| 20260505032925 | 61 | 293 | 6.0 | 9.0 | 0.00 | 0.02 | 0.02 | 43 | 1000.7 |
| 20260505032422 | 62 | 234 | 3.0 | 9.0 | 0.00 | 0.02 | 0.02 | 44 | 1000.5 |
| 20260505031918 | 62 | 236 | 6.0 | 9.0 | 0.00 | 0.02 | 0.02 | 43 | 1000.5 |
| 20260505031415 | 62 | 241 | 4.0 | 7.0 | 0.00 | 0.02 | 0.02 | 43 | 1000.5 |
| 20260505030912 | 63 | 200 | 2.0 | 9.0 | 0.00 | 0.02 | 0.02 | 43 | 1000.4 |
| 20260505030408 | 63 | 328 | 3.0 | 8.0 | 0.00 | 0.02 | 0.02 | 42 | 1000.3 |
| 20260505025903 | 64 | 326 | 4.0 | 14.0 | 0.00 | 0.02 | 0.02 | 41 | 1000.3 |
| 20260505025401 | 64 | 21 | 6.0 | 11.0 | 0.00 | 0.02 | 0.02 | 41 | 1000.6 |
| 20260505024900 | 63 | 179 | 3.0 | 8.0 | 0.00 | 0.02 | 0.02 | 47 | 1000.5 |
| 20260505024357 | 63 | 135 | 2.0 | 4.0 | 0.00 | 0.02 | 0.02 | 55 | 1000.6 |
| 20260505023854 | 63 | 194 | 1.0 | 4.0 | 0.00 | 0.02 | 0.02 | 58 | 1000.5 |
| 20260505023351 | 63 | 222 | 2.0 | 4.0 | 0.00 | 0.02 | 0.02 | 60 | 1000.3 |
| 20260505022848 | 64 | 240 | 2.0 | 6.0 | 0.00 | 0.02 | 0.02 | 61 | 1000.3 |
| 20260505022345 | 64 | 163 | 2.0 | 6.0 | 0.00 | 0.02 | 0.02 | 61 | 999.9 |
| 20260505021842 | 65 | 288 | 3.0 | 4.0 | 0.00 | 0.02 | 0.02 | 60 | 999.8 |
| 20260505021338 | 65 | 322 | 4.0 | 8.0 | 0.00 | 0.02 | 0.02 | 59 | 999.7 |
| 20260505020834 | 65 | 219 | 4.0 | 7.0 | 0.00 | 0.02 | 0.02 | 59 | 999.4 |
| 20260505020330 | 65 | 162 | 1.0 | 8.0 | 0.00 | 0.02 | 0.02 | 59 | 999.5 |
| 20260505015827 | 65 | 216 | 5.0 | 8.0 | 0.00 | 0.02 | 0.02 | 58 | 999.5 |
| 20260505015324 | 65 | 209 | 3.0 | 8.0 | 0.00 | 0.02 | 0.02 | 58 | 999.2 |
| 20260505014821 | 65 | 199 | 4.0 | 7.0 | 0.00 | 0.02 | 0.02 | 58 | 999.1 |
| 20260505014318 | 65 | 240 | 8.0 | 9.0 | 0.00 | 0.02 | 0.02 | 58 | 999.0 |
| 20260505013815 | 66 | 324 | 2.0 | 6.0 | 0.00 | 0.02 | 0.02 | 59 | 998.6 |
| 20260505013312 | 66 | 180 | 2.0 | 7.0 | 0.00 | 0.02 | 0.02 | 59 | 998.5 |
| 20260505012811 | 66 | 206 | 8.0 | 9.0 | 0.00 | 0.02 | 0.02 | 59 | 998.3 |
| 20260505012308 | 66 | 199 | 6.0 | 10.0 | 0.00 | 0.02 | 0.02 | 58 | 998.2 |
| 20260505011804 | 67 | 183 | 7.0 | 18.0 | 0.00 | 0.02 | 0.02 | 58 | 998.0 |
| 20260505011301 | 70 | 159 | 4.0 | 7.0 | 0.00 | 0.02 | 0.02 | 49 | 998.2 |
| 20260505010756 | 70 | 216 | 6.0 | 9.0 | 0.00 | 0.02 | 0.02 | 46 | 998.1 |
| 20260505010253 | 70 | 203 | 8.0 | 10.0 | 0.00 | 0.02 | 0.02 | 46 | 998.0 |
| 20260505005749 | 70 | 204 | 3.0 | 7.0 | 0.00 | 0.02 | 0.02 | 46 | 997.7 |
| 20260505005246 | 70 | 223 | 9.0 | 10.0 | 0.00 | 0.02 | 0.02 | 47 | 997.7 |
| 20260505004743 | 70 | 160 | 4.0 | 10.0 | 0.00 | 0.02 | 0.02 | 47 | 997.5 |
| 20260505004239 | 71 | 164 | 4.0 | 7.0 | 0.00 | 0.02 | 0.02 | 46 | 997.7 |
| 20260505003737 | 71 | 183 | 5.0 | 8.0 | 0.00 | 0.02 | 0.02 | 45 | 997.3 |
| 20260505003235 | 71 | 199 | 7.0 | 9.0 | 0.00 | 0.02 | 0.02 | 43 | 997.1 |
| 20260505002731 | 71 | 192 | 3.0 | 7.0 | 0.00 | 0.02 | 0.02 | 43 | 996.7 |
| 20260505002228 | 71 | 199 | 4.0 | 6.0 | 0.00 | 0.02 | 0.02 | 42 | 996.4 |
| 20260505001725 | 71 | 172 | 4.0 | 8.0 | 0.00 | 0.02 | 0.02 | 43 | 996.3 |
| 20260505001223 | 71 | 249 | 3.0 | 4.0 | 0.00 | 0.02 | 0.02 | 43 | 996.2 |
| 20260505000720 | 71 | 215 | 4.0 | 4.0 | 0.00 | 0.02 | 0.02 | 43 | 996.4 |
| 20260505000219 | 71 | 182 | 4.0 | 8.0 | 0.00 | 0.02 | 0.02 | 43 | 996.4 |
| 20260504235714 | 72 | 216 | 3.0 | 7.0 | 0.00 | 0.02 | 0.02 | 42 | 996.6 |
| 20260504235210 | 72 | 183 | 3.0 | 8.0 | 0.00 | 0.02 | 0.02 | 42 | 996.4 |
| 20260504234708 | 72 | 215 | 4.0 | 7.0 | 0.00 | 0.02 | 0.02 | 42 | 996.2 |
| 20260504234205 | 72 | 179 | 6.0 | 8.0 | 0.00 | 0.02 | 0.02 | 41 | 996.2 |
| 20260504233701 | 71 | 182 | 4.0 | 9.0 | 0.00 | 0.02 | 0.02 | 42 | 996.3 |
| 20260504233157 | 70 | 226 | 3.0 | 7.0 | 0.00 | 0.02 | 0.02 | 45 | 996.4 |
| 20260504232654 | 69 | 82 | 5.0 | 10.0 | 0.00 | 0.02 | 0.02 | 49 | 996.6 |
| 20260504232151 | 69 | 297 | 12.0 | 19.0 | 0.00 | 0.02 | 0.02 | 48 | 996.9 |
| 20260504231648 | 70 | 286 | 13.0 | 25.0 | 0.00 | 0.02 | 0.02 | 45 | 997.0 |
| 20260504231144 | 70 | 247 | 6.0 | 19.0 | 0.00 | 0.02 | 0.02 | 48 | 997.1 |